DW2921 Weather Reports


time (UTC)temp
F
wind
direction
speed
knots
gust
knots
rain 1hr
in
rain 24hr
in
rain mn
in
humidity
%
barometer
mb
20260508235100 68 231 0.0 1.7 0.00 0.00 0.00 41 1013.0
20260508234100 69 231 1.7 4.3 0.00 0.00 0.00 41 1013.0
20260508233100 69 225 0.0 2.6 0.00 0.00 0.00 41 1013.0
20260508232100 70 225 0.9 4.3 0.00 0.00 0.00 41 1013.0
20260508231100 70 225 1.7 6.1 0.00 0.00 0.00 41 1013.0
20260508224101 71 242 3.5 6.1 0.00 0.00 0.00 41 1013.0
20260508223101 71 233 3.5 6.1 0.00 0.00 0.00 41 1013.0
20260508222100 71 278 2.6 7.0 0.00 0.00 0.00 41 1013.0
20260508221100 71 220 5.2 10.4 0.00 0.00 0.00 41 1013.0
20260508215100 71 269 5.2 10.4 0.00 0.00 0.00 41 1013.0
20260508214100 71 234 5.2 8.7 0.00 0.00 0.00 41 1013.0
20260508213101 72 212 5.2 10.4 0.00 0.00 0.00 41 1013.0
20260508212101 72 259 3.5 10.4 0.00 0.00 0.00 41 1013.0
20260508205100 73 174 0.9 10.4 0.00 0.00 0.00 41 1013.0
20260508204101 73 188 1.7 7.0 0.00 0.00 0.00 41 1013.0
20260508203101 74 260 2.6 7.8 0.00 0.00 0.00 41 1013.0
20260508202101 73 191 1.7 6.1 0.00 0.00 0.00 41 1013.0
20260508201100 74 236 2.6 10.4 0.00 0.00 0.00 41 1013.0
20260508194101 73 238 5.2 10.4 0.00 0.00 0.00 41 1013.0
20260508193100 72 200 4.3 7.8 0.00 0.00 0.00 41 1013.0
20260508192100 72 304 2.6 11.3 0.00 0.00 0.00 41 1013.0
20260508185101 72 225 3.5 7.0 0.00 0.00 0.00 41 1013.0
20260508184100 71 250 2.6 6.1 0.00 0.00 0.00 41 1013.0
20260508183100 71 166 1.7 6.1 0.00 0.00 0.00 41 1013.0
20260508182100 71 216 2.6 7.8 0.00 0.00 0.00 41 1013.0
20260508181101 71 207 2.6 5.2 0.00 0.00 0.00 41 1013.0
20260508175100 70 208 1.7 7.8 0.00 0.00 0.00 41 1013.0
20260508174101 71 202 4.3 6.1 0.00 0.00 0.00 41 1013.0
20260508173100 71 61 2.6 5.2 0.00 0.00 0.00 41 1013.0
20260508172100 69 225 1.7 5.2 0.00 0.00 0.00 41 1013.0
20260508171100 70 90 1.7 4.3 0.00 0.00 0.00 41 1013.0
20260508165101 68 101 2.6 5.2 0.00 0.00 0.00 41 1013.0
20260508164100 67 120 0.9 4.3 0.00 0.00 0.00 41 1013.0
20260508163100 66 123 1.7 5.2 0.00 0.00 0.00 41 1013.0
20260508162101 66 249 2.6 4.3 0.00 0.00 0.00 41 1013.0
20260508161100 66 100 1.7 4.3 0.00 0.00 0.00 41 1013.0
20260508154101 62 2 1.7 4.3 0.00 0.00 0.00 41 1013.0
20260508153101 62 348 1.7 5.2 0.00 0.00 0.00 41 1013.0
20260508152101 62 55 2.6 4.3 0.00 0.00 0.00 41 1013.0
20260508151101 61 67 2.6 4.3 0.00 0.00 0.00 41 1013.0
20260508145100 60 153 0.9 2.6 0.00 0.00 0.00 41 1013.0
20260508144101 59 91 1.7 2.6 0.00 0.00 0.00 41 1013.0
20260508143100 58 55 1.7 2.6 0.00 0.00 0.00 41 1013.0
20260508141100 57 357 0.9 2.6 0.00 0.00 0.00 41 1013.0
20260508134101 54 355 0.0 1.7 0.00 0.00 0.00 41 1013.0
20260508133101 53 355 0.0 2.6 0.00 0.00 0.00 41 1013.0
20260508132101 52 355 0.9 2.6 0.00 0.00 0.00 41 1013.0
20260508131101 51 355 0.0 0.9 0.00 0.01 0.00 41 1013.0
20260508130103 51 355 0.0 1.7 0.00 0.01 0.00 41 1013.0
20260508125101 50 355 0.9 1.7 0.00 0.01 0.00 41 1013.0
20260508124101 49 355 0.9 2.6 0.00 0.01 0.00 41 1013.0
20260508123101 49 355 0.9 2.6 0.00 0.01 0.00 41 1013.0
20260508122101 48 355 0.0 0.0 0.00 0.01 0.00 41 1013.0
20260508121100 47 355 0.0 0.0 0.00 0.02 0.00 41 1013.0
20260508115101 46 355 0.0 0.0 0.00 0.02 0.00 41 1013.0
20260508113100 45 355 0.0 0.0 0.00 0.02 0.00 41 1013.0
20260508111100 45 355 0.0 0.0 0.00 0.02 0.00 41 1013.0
20260508105100 45 355 0.0 0.0 0.00 0.02 0.00 41 1013.0
20260508104100 45 355 0.0 0.0 0.00 0.03 0.00 41 1013.0
20260508103101 45 355 0.0 0.9 0.00 0.03 0.00 41 1013.0
20260508102101 46 295 0.0 0.0 0.00 0.03 0.00 41 1013.0
20260508101101 46 295 0.0 0.0 0.00 0.03 0.00 41 1013.0
20260508095101 46 295 0.0 0.0 0.00 0.03 0.00 41 1013.0
20260508094101 47 295 0.0 0.0 0.00 0.03 0.00 41 1013.0
20260508093101 47 295 0.0 0.0 0.00 0.03 0.00 41 1013.0
20260508092101 47 295 0.0 0.0 0.00 0.03 0.00 41 1013.0
20260508091101 47 295 0.0 0.0 0.00 0.03 0.00 41 1013.0
20260508090103 48 295 0.0 0.0 0.00 0.03 0.00 41 1013.0
20260508085101 48 295 0.0 0.0 0.00 0.03 0.00 41 1013.0
20260508084101 48 295 0.0 0.0 0.00 0.03 0.00 41 1013.0
20260508083101 48 295 0.0 0.0 0.00 0.03 0.00 41 1013.0
20260508082100 49 295 0.0 0.0 0.00 0.03 0.00 41 1013.0
20260508081101 49 295 0.0 0.0 0.00 0.03 0.00 41 1013.0
20260508075101 49 295 0.0 0.0 0.00 0.03 0.00 41 1013.0
20260508074100 49 295 0.0 0.0 0.00 0.03 0.00 41 1013.0
20260508073101 50 295 0.0 0.0 0.00 0.03 0.00 41 1013.0
20260508072101 50 295 0.0 0.0 0.00 0.04 0.00 41 1013.0
20260508071101 50 295 0.0 0.0 0.00 0.05 0.00 41 1013.0
20260508065100 51 295 0.0 0.0 0.00 0.05 0.00 41 1013.0
20260508064101 51 295 0.0 0.0 0.00 0.05 0.00 41 1013.0
20260508063101 51 295 0.0 0.0 0.00 0.05 0.00 41 1013.0
20260508062102 51 295 0.0 0.0 0.00 0.05 0.00 41 1013.0
20260508061101 52 295 0.0 0.0 0.00 0.05 0.00 41 1013.0
20260508060104 52 295 0.0 0.0 0.00 0.05 0.00 41 1013.0
20260508055101 52 295 0.0 0.0 0.00 0.05 0.00 41 1013.0
20260508054101 52 295 0.0 0.0 0.00 0.05 0.00 41 1013.0
20260508053101 53 295 0.0 0.0 0.00 0.05 0.00 41 1013.0
20260508052102 53 295 0.0 0.0 0.00 0.05 0.00 41 1013.0
20260508051101 53 295 0.0 0.0 0.00 0.06 0.00 41 1013.0
20260508050103 53 295 0.0 0.0 0.00 0.07 0.00 41 1013.0
20260508045101 53 295 0.0 0.0 0.00 0.08 0.00 41 1013.0
20260508044101 54 295 0.0 0.0 0.00 0.08 0.00 41 1013.0
20260508043101 54 295 0.0 0.0 0.00 0.08 0.00 41 1013.0
20260508042101 54 295 0.0 0.0 0.00 0.08 0.00 41 1013.0
20260508041101 54 295 0.0 0.0 0.00 0.08 0.00 41 1013.0
20260508035101 55 295 0.0 0.0 0.00 0.08 0.08 41 1013.0
20260508034101 55 295 0.0 0.0 0.00 0.08 0.08 41 1013.0
20260508032101 56 295 0.0 0.0 0.00 0.08 0.08 41 1013.0
20260508031101 56 295 0.0 0.0 0.00 0.08 0.08 41 1013.0
20260508030103 56 295 0.0 0.0 0.00 0.09 0.08 41 1013.0
20260508025101 57 294 0.0 0.0 0.00 0.09 0.08 41 1013.0
20260508024101 57 295 0.0 0.0 0.00 0.09 0.08 41 1013.0
20260508021102 58 295 0.0 0.0 0.00 0.09 0.08 41 1013.0
20260508020103 58 295 0.0 0.0 0.00 0.09 0.08 41 1013.0
20260508014101 58 295 0.0 0.0 0.00 0.09 0.08 41 1013.0
20260508013101 58 295 0.0 0.0 0.00 0.09 0.08 41 1013.0
20260508012101 58 295 0.0 0.0 0.00 0.09 0.08 41 1013.0
20260508011101 59 295 0.0 0.0 0.00 0.09 0.08 41 1013.0
20260508005101 59 295 0.0 0.0 0.00 0.10 0.08 41 1013.0
20260508004101 60 295 0.0 0.0 0.00 0.10 0.08 41 1013.0
20260508003101 60 295 0.0 0.0 0.00 0.11 0.08 41 1013.0
20260508002101 60 295 0.0 0.0 0.00 0.11 0.08 41 1013.0
20260508001101 61 295 0.0 0.0 0.00 0.11 0.08 41 1013.0